Temperature
22 22 22 21 21 20 20 19 19 19 19 19 19 19 19 19 19 19 19 19 19 19 18 18 18 19 19 19 19 19 19 19 19 19 19 19 19 18 18 17 17 18 18
23 22 22 21 21 20 20 19 19 19 19 19 19 19 19 19 19 19 19 18 18 18 18 18 18 18 19 19 19 19 19 19 19 19 18 18 18 18 18 17 17 18 18
23 22 22 22 21 20 20 19 19 19 19 19 19 19 19 19 19 18 18 18 18 18 18 18 18 18 18 18 19 19 19 19 18 18 18 17 18 18 18 17 17 18 18
22 22 22 21 21 20 20 19 19 19 19 19 19 18 18 18 18 18 18 18 18 18 18 18 18 18 18 18 18 19 19 18 18 18 17 17 18 18 18 18 17 17 17
21 21 21 21 21 20 20 19 19 19 19 19 19 18 18 18 18 18 18 18 18 18 18 18 18 18 18 18 18 19 19 18 18 18 17 17 18 18 18 18 17 17 17
21 21 21 21 21 20 20 19 19 19 19 19 18 18 18 18 18 18 18 18 18 18 18 18 18 18 18 18 18 19 19 18 18 18 17 17 18 18 18 18 17 17 17
21 21 21 21 20 20 20 19 19 19 19 19 18 18 18 18 18 18 18 18 17 17 18 18 18 18 18 18 18 19 19 18 18 18 17 17 18 18 18 18 17 17 17
21 21 22 21 20 20 20 19 19 19 19 18 18 18 18 18 18 18 18 17 17 17 17 18 18 18 18 18 18 19 19 18 18 17 17 18 18 18 18 18 17 17 17
22 21 22 21 20 20 19 19 19 19 18 18 18 18 18 18 18 18 18 18 17 17 18 18 18 18 18 18 19 19 19 19 18 17 17 18 18 18 18 18 17 17 17
22 21 22 21 21 20 19 19 19 18 18 18 18 18 18 18 18 18 18 18 18 18 18 18 18 18 18 18 19 19 19 19 18 18 18 18 18 18 18 18 18 18 18
22 21 21 20 20 20 19 19 19 18 18 18 18 18 18 18 18 18 18 18 17 18 18 18 18 18 18 19 19 19 19 19 18 18 18 18 18 18 18 18 18 18 18
23 21 20 20 19 19 19 19 19 19 19 18 18 18 18 18 17 17 17 17 17 18 18 18 18 18 18 18 19 19 19 19 18 18 18 18 18 18 18 18 17 17 17
23 22 21 20 20 20 19 19 19 18 18 18 17 18 18 17 17 17 17 17 17 17 17 17 18 18 18 18 19 19 19 19 19 18 18 18 18 18 18 17 17 17 17
24 23 22 21 20 20 20 19 19 18 18 18 18 18 18 17 17 17 17 17 17 17 17 17 17 18 18 18 19 19 19 19 18 18 18 18 18 17 17 17 17 17 16
24 23 23 22 21 21 20 20 19 19 19 18 18 18 18 17 17 17 17 17 17 17 17 17 17 17 18 18 18 19 19 18 17 17 17 17 17 17 17 16 16 16 16
24 23 23 22 21 21 20 20 20 19 19 19 18 18 18 18 18 18 17 17 17 17 17 17 17 17 17 17 18 18 18 17 17 17 16 16 16 16 16 16 16 16 15
25 24 23 22 21 21 20 20 19 19 19 19 18 18 18 18 18 18 18 17 17 17 17 17 17 17 17 17 17 17 17 17 17 16 16 15 15 15 15 15 15 15 15
25 24 23 22 21 20 20 19 19 19 19 19 19 19 18 18 18 18 18 17 17 17 17 17 16 16 16 16 16 16 16 16 16 16 15 15 14 14 14 14 14 14 14
25 24 23 22 21 20 19 19 19 19 19 19 19 19 18 18 18 18 18 17 17 16 16 16 16 16 16 16 15 15 15 15 15 15 15 15 14 14 14 14 13 13 13
25 24 23 22 21 20 19 19 18 18 18 18 19 19 18 18 18 18 17 17 16 16 16 15 15 15 15 15 15 15 15 15 15 15 14 14 14 13 13 12 12 12 12
25 24 22 21 20 19 19 18 18 18 18 18 18 18 18 18 17 17 16 16 16 15 15 15 15 14 14 14 14 14 14 14 14 14 14 14 13 13 12 12 11 11 11
24 23 22 21 20 19 18 18 18 18 18 18 18 18 17 17 16 16 15 15 15 15 15 14 14 14 13 13 13 13 13 13 13 13 13 13 13 12 12 11 11 11 10
24 23 22 21 20 19 18 18 17 17 17 17 17 17 16 16 15 15 15 14 14 14 13 13 13 13 13 13 13 12 12 12 12 13 13 12 12 11 11 11 10 10 10
24 23 22 21 20 19 18 18 18 17 17 17 16 16 15 15 15 14 14 13 13 13 13 12 12 12 12 12 12 12 12 12 11 11 12 12 11 11 11 10 10 10 9
23 23 22 21 19 19 18 18 17 17 16 16 15 15 14 14 14 13 13 13 12 12 12 12 12 11 11 11 11 11 11 11 11 10 11 11 11 11 11 11 10 10 9
21 21 21 20 19 18 18 17 17 16 16 15 14 14 13 13 13 12 12 12 12 12 12 11 11 11 11 11 10 10 10 10 10 10 10 10 10 10 10 10 10 10 9
Wind_Speed
20 21 21 17 15 16 17 17 16 16 15 13 13 13 14 15 16 16 16 16 15 15 14 13 12 11 11 10 10 10 10 10 10 11 13 13 12 12 11 10 10 16 15
24 23 22 18 16 16 17 17 17 16 15 14 13 13 14 14 15 15 15 15 14 13 13 12 11 10 9 8 8 7 6 6 6 7 10 12 12 11 12 14 15 14 13
23 22 21 19 17 16 17 17 17 17 16 15 14 14 14 14 15 14 14 14 13 13 12 11 10 9 8 7 6 5 3 1 1 3 6 9 12 11 12 14 15 13 12
22 21 20 19 18 17 16 17 17 17 16 16 15 14 14 14 14 14 13 13 12 12 11 10 8 7 6 5 4 3 2 3 3 4 6 3 11 12 12 12 12 11 10
20 20 21 20 19 17 17 16 17 17 17 16 16 15 14 14 13 13 12 12 12 11 10 8 7 6 5 4 3 2 3 6 7 8 4 6 14 13 12 11 10 9 8
21 21 21 20 19 18 17 16 16 17 17 17 16 15 14 13 12 12 11 11 10 9 8 7 6 5 4 3 3 3 5 7 9 6 3 11 15 13 11 9 8 7 6
20 21 21 20 19 18 17 16 16 16 17 17 16 15 14 13 12 11 10 9 9 8 7 6 5 4 3 3 3 5 6 8 8 6 5 12 15 14 11 8 7 6 5
20 20 20 20 19 18 17 16 15 15 15 16 15 14 13 12 11 10 9 8 8 7 7 6 4 3 2 2 4 6 8 9 4 5 10 15 16 14 11 9 7 6 5
20 19 18 18 17 16 16 15 15 15 15 15 15 13 12 11 10 9 8 8 8 7 7 5 3 1 1 3 5 7 9 10 9 4 14 15 17 15 12 10 9 7 6
19 19 16 18 17 16 15 15 14 14 14 14 13 12 11 10 9 9 10 10 9 8 7 6 4 4 5 6 7 8 10 10 6 11 14 14 17 15 13 11 9 8 7
17 18 16 17 16 17 17 16 15 14 13 13 12 11 11 10 11 11 11 13 10 9 8 7 7 8 8 9 11 11 10 8 8 14 15 15 15 15 12 10 9 8 7
17 18 17 17 16 17 16 17 14 14 14 13 13 13 11 12 12 11 16 15 12 10 10 10 11 11 11 10 12 12 10 9 11 14 13 16 15 13 11 9 8 7 6
17 15 18 17 14 13 11 14 12 13 14 14 14 16 13 10 9 11 13 12 11 12 10 11 11 11 11 8 7 9 5 5 12 14 13 14 13 11 9 7 6 5 4
18 16 17 17 14 12 12 11 10 9 11 11 13 16 11 5 4 9 8 10 10 10 9 9 9 10 3 2 4 1 3 8 13 13 11 12 11 9 7 5 3 3 3
17 15 15 16 13 8 8 8 8 6 9 10 13 12 10 5 3 5 4 5 6 6 6 5 4 3 2 1 4 6 9 11 13 14 11 12 11 9 7 5 3 1 1
16 15 13 14 14 10 7 6 6 6 7 9 11 13 11 7 5 4 3 2 2 2 2 2 1 3 2 3 5 9 10 12 12 12 11 11 12 11 10 8 7 6 5
16 14 12 12 14 11 10 8 5 6 9 6 9 12 12 10 9 6 3 2 1 2 2 2 3 3 2 3 5 7 8 10 10 9 5 8 10 11 11 10 9 8 7
17 15 14 15 15 12 10 9 6 6 7 7 10 11 12 11 11 7 4 3 4 4 3 2 2 3 3 4 5 4 4 4 6 5 5 5 7 9 10 9 8 6 5
16 16 14 13 15 14 11 9 6 6 6 8 9 9 10 11 10 8 5 4 5 4 3 2 4 4 4 4 3 2 2 2 2 3 3 3 2 2 8 9 7 5 4
16 16 14 12 13 14 11 8 7 7 7 7 7 9 11 10 10 9 6 6 7 5 4 5 5 5 3 3 2 1 1 1 1 1 2 2 0 2 1 5 7 7 7
16 16 15 14 13 12 11 11 10 8 8 7 6 10 11 11 10 9 6 6 6 6 6 5 3 3 2 1 1 1 2 3 3 1 1 2 2 1 2 5 6 5 8
15 16 15 13 14 12 10 8 8 9 7 7 6 6 8 9 9 8 7 5 5 6 6 5 3 2 2 2 1 1 2 2 2 4 3 4 3 3 3 7 7 6 7
12 15 16 14 14 13 12 9 10 8 6 5 6 5 7 9 9 8 8 6 5 4 4 5 4 4 3 2 1 1 1 2 3 2 4 4 3 2 3 7 10 10 8
5 12 14 15 14 13 13 13 14 10 8 6 6 6 7 8 8 9 9 8 5 4 5 5 4 3 3 2 1 1 1 2 2 3 2 4 5 5 6 7 9 9 10
6 6 12 14 14 13 12 14 12 10 8 8 9 10 9 7 9 10 10 9 7 6 6 7 5 4 2 2 1 1 2 2 4 3 4 4 3 4 5 4 5 7 10
13 10 11 13 12 11 11 11 10 11 11 12 11 10 8 7 7 10 11 10 8 7 6 6 5 6 5 4 4 3 2 2 3 3 4 5 5 5 5 4 3 7 10
Wind_Direction
125 132 126 120 120 131 139 140 137 133 129 123 118 111 104 99 98 98 99 101 101 101 99 94 89 84 78 74 72 71 71 73 79 86 91 90 85 78 69 64 97 87 87
128 132 126 122 122 131 140 142 141 139 135 132 127 120 113 107 104 103 103 103 103 102 100 97 93 89 84 80 78 78 80 84 93 106 115 109 99 86 71 64 79 94 88
125 131 130 124 123 129 138 142 143 143 141 137 133 127 120 114 108 106 105 104 104 103 102 100 96 91 85 81 78 76 72 79 111 149 171 126 113 96 84 81 87 91 88
127 136 135 128 125 127 133 139 144 144 144 141 136 131 126 120 115 112 109 107 106 106 105 103 99 94 87 79 71 56 349 305 289 264 238 197 123 106 96 91 92 92 89
132 136 133 133 128 128 130 136 142 145 145 142 138 135 131 126 122 117 115 113 111 110 109 106 102 96 88 76 57 19 324 308 305 290 314 103 110 113 105 100 97 96 93
135 133 138 136 132 130 131 135 140 143 144 143 141 138 135 132 127 123 120 117 115 114 111 107 101 93 79 58 22 344 320 314 310 322 21 125 112 114 110 109 104 102 99
136 134 142 139 137 135 135 137 139 142 144 143 142 141 139 136 132 128 125 122 120 116 113 108 101 87 62 24 349 328 319 316 292 25 36 98 106 110 107 106 106 109 110
133 135 142 142 142 141 141 141 142 142 142 143 143 143 142 140 136 132 130 127 124 120 118 115 109 91 41 346 325 314 310 309 307 109 124 101 103 101 99 97 99 104 111
136 136 147 149 148 147 147 146 145 143 142 142 143 144 145 145 143 141 138 135 132 130 130 131 133 147 263 285 292 296 298 302 300 123 114 109 109 102 99 99 99 102 106
138 141 151 155 156 158 157 154 150 147 145 145 147 151 153 155 158 158 155 146 143 144 146 153 171 210 237 251 261 272 284 298 295 92 99 108 110 107 105 104 105 105 108
143 144 155 159 162 167 165 160 157 154 152 152 158 163 168 183 182 182 176 151 153 155 160 174 199 221 236 245 250 257 271 266 97 100 107 121 118 115 116 116 116 117 119
152 153 161 164 166 174 167 157 167 172 168 180 179 177 195 210 196 182 154 154 161 167 177 196 214 230 236 237 238 243 253 242 130 113 125 134 125 122 124 127 128 129 132
161 166 164 167 169 174 159 159 174 181 171 193 188 178 200 206 180 141 148 159 172 183 196 201 219 235 230 224 221 210 230 66 104 111 122 124 121 123 128 135 141 147 154
167 177 166 165 168 174 162 165 172 175 165 183 180 178 187 181 159 150 166 181 186 196 203 195 223 227 233 279 284 38 63 79 96 99 103 105 106 110 117 127 142 165 188
170 178 170 165 160 166 148 158 166 161 163 166 158 167 162 163 153 149 160 180 203 190 181 230 237 148 101 316 337 39 39 50 81 100 102 100 100 98 95 87 75 39 322
167 173 170 157 152 153 146 148 146 150 136 143 146 158 162 150 135 128 138 176 235 132 151 232 92 95 72 39 40 41 39 39 50 78 109 106 102 98 91 81 67 53 42
164 165 160 156 154 157 160 164 154 148 141 131 131 141 145 142 134 134 141 150 153 107 95 46 59 85 97 75 60 47 44 38 34 33 63 119 116 103 97 91 82 71 60
163 159 162 171 162 161 164 162 159 155 135 128 127 133 140 134 134 135 137 143 142 121 98 81 53 67 58 57 65 46 47 44 38 7 357 39 107 118 120 117 112 105 95
158 157 163 167 163 165 162 155 153 130 115 120 123 122 124 128 132 129 123 121 124 94 71 83 56 57 59 49 62 75 43 32 12 336 16 358 42 107 140 149 148 152 152
157 156 162 162 158 157 157 149 147 133 119 108 108 116 120 125 132 129 125 123 115 98 80 70 71 60 56 39 352 13 331 330 293 358 331 328 340 252 190 152 178 189 198
154 157 163 167 159 157 162 164 160 148 132 122 121 128 132 138 138 132 123 117 118 121 123 116 101 107 98 44 322 283 232 213 220 187 242 299 294 256 294 280 253 244 194
158 160 162 165 163 164 163 159 149 136 133 129 120 114 117 119 118 121 124 127 126 130 132 128 133 127 97 64 18 312 290 248 230 223 204 211 238 253 283 285 280 253 242
164 166 172 169 164 164 151 137 129 121 123 122 120 111 103 109 116 125 131 129 131 128 130 132 140 139 139 121 59 39 347 331 342 217 224 238 223 208 251 270 279 274 265
170 170 163 161 157 152 147 149 151 156 155 142 127 113 107 109 116 118 118 119 117 107 108 109 88 97 114 132 139 89 85 78 314 328 264 242 223 226 232 246 259 272 275
38 139 149 147 146 149 150 153 154 151 133 122 116 112 101 92 95 101 104 103 97 95 94 91 90 79 87 77 115 170 196 207 220 247 290 309 290 256 241 231 246 258 265
42 66 105 122 126 133 137 143 144 136 129 126 122 118 107 99 93 96 99 100 98 96 93 94 91 73 62 47 21 11 3 335 320 312 311 316 309 315 328 318 287 272 267
Height
1514 1517 1522 1525 1529 1532 1535 1538 1541 1544 1547 1549 1552 1554 1556 1557 1559 1561 1562 1564 1565 1566 1567 1568 1569 1570 1570 1570 1570 1570 1570 1570 1571 1571 1571 1572 1572 1572 1573 1573 1574 1575 1576
1512 1517 1522 1526 1529 1533 1536 1540 1543 1546 1548 1551 1553 1555 1557 1559 1561 1562 1564 1565 1566 1567 1568 1569 1570 1571 1571 1571 1571 1571 1571 1572 1572 1572 1573 1573 1574 1574 1574 1575 1576 1577 1578
1512 1518 1522 1526 1530 1534 1537 1541 1544 1547 1550 1552 1555 1557 1559 1560 1562 1564 1565 1566 1567 1568 1569 1570 1571 1571 1572 1572 1572 1572 1573 1573 1573 1573 1573 1575 1576 1576 1576 1577 1578 1579 1579
1514 1519 1523 1527 1531 1535 1538 1542 1545 1548 1551 1553 1556 1558 1560 1561 1563 1564 1566 1567 1568 1569 1570 1571 1571 1572 1572 1573 1573 1573 1574 1574 1575 1575 1575 1577 1577 1578 1578 1578 1579 1580 1581
1516 1519 1523 1528 1531 1535 1539 1542 1546 1549 1551 1554 1556 1558 1560 1562 1563 1565 1566 1567 1568 1569 1570 1571 1572 1572 1573 1573 1574 1574 1575 1575 1576 1576 1576 1576 1578 1579 1579 1580 1581 1582 1583
1518 1520 1524 1528 1532 1536 1539 1543 1546 1549 1552 1555 1557 1559 1561 1563 1564 1565 1566 1568 1569 1570 1571 1572 1572 1573 1574 1574 1574 1575 1576 1576 1577 1577 1576 1577 1579 1580 1580 1581 1582 1583 1584
1520 1521 1525 1529 1533 1536 1540 1544 1547 1550 1553 1555 1558 1560 1562 1563 1565 1566 1567 1568 1569 1570 1571 1572 1573 1574 1574 1575 1575 1576 1576 1577 1578 1577 1575 1577 1579 1581 1581 1582 1583 1584 1585
1520 1522 1526 1530 1533 1537 1540 1544 1547 1551 1553 1556 1558 1560 1562 1564 1565 1566 1567 1568 1570 1571 1572 1573 1574 1575 1575 1575 1576 1577 1577 1578 1579 1577 1575 1578 1580 1581 1583 1583 1584 1585 1586
1521 1522 1526 1530 1533 1537 1541 1544 1548 1551 1554 1556 1558 1560 1562 1564 1565 1566 1567 1569 1570 1571 1572 1574 1575 1575 1576 1576 1577 1577 1578 1579 1580 1580 1579 1580 1581 1583 1584 1584 1585 1586 1587
1522 1523 1526 1530 1533 1537 1540 1544 1547 1551 1553 1556 1558 1560 1562 1564 1565 1567 1568 1569 1570 1571 1573 1574 1575 1576 1576 1577 1577 1578 1579 1580 1581 1581 1581 1582 1583 1584 1585 1586 1587 1588 1588
1522 1523 1526 1529 1533 1536 1540 1543 1547 1550 1552 1555 1558 1560 1562 1564 1565 1567 1568 1569 1570 1571 1573 1574 1575 1576 1577 1577 1578 1578 1579 1580 1581 1580 1581 1582 1584 1585 1586 1587 1588 1589 1589
1521 1524 1526 1530 1533 1537 1540 1542 1546 1549 1551 1554 1557 1559 1562 1564 1566 1567 1568 1569 1570 1571 1573 1574 1575 1576 1577 1577 1578 1579 1580 1581 1581 1580 1581 1583 1584 1586 1587 1587 1588 1589 1589
1519 1523 1526 1529 1533 1537 1540 1541 1545 1547 1550 1554 1556 1558 1561 1564 1566 1567 1568 1569 1570 1571 1572 1574 1575 1576 1577 1579 1580 1581 1582 1582 1581 1580 1582 1583 1584 1585 1586 1587 1587 1588 1588
1517 1521 1525 1528 1531 1536 1539 1541 1544 1547 1550 1552 1555 1558 1560 1563 1565 1566 1567 1568 1569 1570 1572 1574 1574 1576 1578 1579 1580 1581 1582 1582 1581 1581 1582 1583 1583 1584 1585 1586 1586 1587 1587
1514 1518 1522 1525 1529 1533 1537 1540 1543 1547 1549 1551 1554 1556 1559 1562 1564 1566 1567 1568 1569 1571 1572 1573 1575 1575 1577 1578 1580 1580 1581 1581 1580 1580 1581 1582 1583 1583 1584 1584 1584 1584 1585
1510 1515 1519 1522 1525 1530 1534 1538 1542 1545 1548 1550 1552 1555 1558 1560 1561 1563 1565 1567 1568 1570 1571 1572 1573 1574 1575 1577 1577 1578 1579 1579 1580 1580 1580 1580 1581 1581 1581 1582 1582 1581 1581
1506 1511 1516 1519 1522 1526 1530 1535 1539 1542 1545 1548 1550 1552 1555 1557 1558 1560 1561 1563 1565 1567 1569 1571 1571 1572 1573 1574 1575 1576 1577 1578 1578 1579 1580 1579 1578 1578 1578 1578 1578 1578 1577
1502 1507 1512 1517 1519 1522 1527 1531 1536 1539 1542 1544 1547 1549 1551 1552 1554 1556 1558 1560 1562 1564 1566 1568 1569 1570 1571 1572 1573 1574 1575 1576 1576 1577 1577 1577 1576 1574 1573 1573 1574 1574 1573
1498 1502 1508 1513 1516 1519 1523 1528 1532 1535 1538 1541 1543 1545 1547 1549 1551 1552 1555 1557 1559 1560 1562 1564 1566 1567 1569 1570 1571 1572 1572 1572 1573 1573 1573 1573 1573 1572 1570 1569 1569 1569 1569
1494 1498 1503 1509 1513 1516 1520 1524 1528 1531 1534 1537 1539 1542 1544 1546 1547 1548 1551 1552 1554 1556 1559 1560 1562 1564 1566 1567 1568 1569 1569 1569 1569 1568 1568 1569 1568 1568 1567 1566 1564 1564 1564
1491 1495 1500 1505 1509 1512 1516 1519 1523 1526 1529 1533 1536 1538 1540 1542 1543 1544 1546 1549 1550 1552 1554 1556 1559 1561 1562 1564 1565 1565 1565 1565 1564 1564 1564 1564 1564 1564 1564 1563 1562 1562 1560
1487 1492 1497 1502 1506 1509 1513 1517 1520 1522 1525 1529 1532 1535 1537 1538 1539 1540 1543 1545 1547 1549 1550 1552 1555 1557 1558 1560 1562 1562 1562 1562 1560 1561 1561 1560 1561 1561 1560 1560 1560 1559 1558
1485 1489 1493 1498 1502 1507 1510 1513 1516 1519 1522 1526 1528 1530 1532 1534 1536 1538 1539 1541 1544 1546 1548 1549 1552 1554 1555 1557 1558 1560 1560 1559 1559 1558 1558 1558 1558 1557 1557 1556 1556 1555 1554
1483 1486 1489 1494 1499 1503 1506 1509 1512 1516 1519 1522 1525 1527 1529 1531 1533 1535 1536 1539 1541 1543 1545 1547 1549 1552 1553 1554 1555 1556 1558 1558 1558 1557 1557 1556 1555 1554 1553 1552 1552 1551 1550
1481 1483 1486 1491 1495 1499 1504 1507 1510 1514 1517 1520 1522 1525 1527 1529 1531 1533 1535 1537 1539 1541 1543 1545 1547 1549 1551 1553 1554 1555 1556 1557 1556 1556 1555 1555 1554 1553 1552 1550 1549 1547 1546
1482 1483 1486 1489 1494 1497 1501 1505 1509 1512 1515 1517 1520 1522 1525 1527 1530 1532 1534 1536 1538 1540 1543 1545 1547 1548 1550 1552 1553 1554 1555 1556 1556 1555 1553 1552 1551 1550 1549 1548 1546 1544 1542